Showing default

IRIDIUM 111, 41926

Orbit data source: Space-Track

IRIDIUM 111, 41926 is a payload satellite owned by Iridium (US) in LEO that was launched on Sat, 14 Jan 2017 UTC via an FALCON 9 launch vehicle from the Air Force Western Test Range (AFWTR). Payloads include a variety of satellites, spacecraft, and rockets equipped with specific instruments for various scientific and technological missions. These include communications satellites like Starlink; space stations such as the ISS; scientific satellites like the Hubble; Earth observation satellites from companies like Planet Labs, Umbra, and HawkEye 360; GPS; miniature CubeSats for education and research; and military/defense satellites.

Loading next visibility...
IRIDIUM 111 details
Identifier
41926, 2017-003K
Orbit
LEO
Last TLE update7 hours ago
Origin
Flag of USIridium (US)
ManufacturerOATK SSG Gilbert
MissionOperational Commercial Communications
Bus & MotorELITEBUS, Unknown motor
Mass860 kg wet, 700 kg dry
Launch date (UTC)
2017-01-14 (8 years ago)
Launch vehicle
FALCON 9
Launch site
Air Force Western Test Range (AFWTR)
Object type
Payload
Rocket body
Debris
Shape & HBRTrap Box + 2 Pan, 9.4 m
Radar Cross Section14.423 m², Large (>1 m²)

Expand to show TLE details & history

TLE from 7 hours ago
0 IRIDIUM 111
1 41926U 17003K   24361.27534849  .00000121  00000-0  36114-4 0  9994
2 41926  86.3966 313.1431 0002111  83.3329 276.8107 14.34217379416150
Epoch: 2024-12-26T06:36Z
Definitive object data (Epoch: 2024-12-26T06:36:30.109Z)
Latitude-0.00003°
Longitude118.76056°
Altitude780.54 km
Speed7.464 km/s
True Right ascension20h 52m 34s
True Declination0° 00' 00"
Sunlit
Object was in daylight at TLE epoch
Visualization TLE readout
Latitude56.70391°
Longitude124.11214°
Altitude785.882 km
Speed7.467 km/s
Apparent Right ascension23h 17m 58s
Apparent Declination13° 35' 11"
Sunlit
Object is in daylight
Visualization observer readout
Local Sidereal Time12:55:52
Azimuth28.304° NE
Elevation-31.856°
Doppler factor1
Orbital elements
Apogee altitude776.143 km
Perigee altitude773.123 km
Semi-major axis7,152.77 km
Eccentricity0.0002111
Inclination86.3966°
RAAN313.1431°
Arg. of periapsis83.3329°
True anomaly276.78668°
Mean anomaly276.8107°
Eccentric anomaly276.79869°
Mean motion3.58783 °/min
BSTAR0.000036114
Orbital period100.34 mins
Loading maneuver chart data...
Loading historical data...
Loading historical data...
Loading historical data...
Loading historical data...
Loading historical data...
Loading historical data...
Loading historical data...

IRIDIUM 111 Visibility forecast

Observer location: undefined°, undefined

Span
Click to sort rows by Start time (UTC) header in descending order
Start Az.
Max El. time (UTC)
Max El. Az.
Max El.
End time (UTC)
End Az.
8 mins2024-12-26 21:48:10.615Z192.122° SSW2024-12-26 21:52:10.615Z301.051° NW42.91°2024-12-26 21:56:10.615Z356.39° N
7 mins2024-12-27 08:19:10.615Z30.989° NE2024-12-27 08:22:10.615Z78.618° E25.816°2024-12-27 08:26:10.615Z136.159° SSE
7 mins2024-12-27 10:00:10.615Z322.085° NNW2024-12-27 10:03:10.615Z269.931° W26.452°2024-12-27 10:07:10.615Z217.693° SW
|